Theta_e
313 313 315 316 315 315 315 315 315 317 319 320 321 322 323 324 324 324 326 327 328 328 328 329 329 329 329 328 328 329 329 325 325 330 333 332 335 339 344 345 344 345 346 345
313 313 314 313 313 313 313 313 315 315 316 319 321 321 322 323 325 324 325 326 327 327 327 328 328 327 327 327 328 328 327 327 325 333 324 329 334 339 343 345 345 346 346 345
312 312 312 312 312 312 313 313 313 314 316 317 319 321 322 323 323 322 323 324 325 326 326 327 327 326 326 326 327 328 329 327 325 323 332 335 330 340 344 346 348 346 345 343
311 311 311 311 311 312 313 313 313 313 313 315 317 321 322 322 323 324 323 324 324 324 325 325 325 325 325 325 326 326 327 326 328 322 325 334 340 342 346 346 345 343 344 346
310 311 311 311 312 313 313 313 313 313 313 314 315 318 319 321 323 323 324 323 323 323 323 323 324 324 324 324 324 325 325 328 328 330 322 334 339 343 345 345 346 343 342 340
312 313 313 313 314 314 313 313 314 313 313 314 314 317 318 320 321 322 323 323 323 323 323 323 323 322 323 323 324 324 325 328 331 325 321 327 340 345 347 347 344 344 344 342
312 312 313 314 314 315 314 314 314 312 314 313 314 315 317 319 321 322 322 322 322 322 322 322 322 322 323 324 324 325 327 328 329 336 339 335 342 347 347 348 342 344 344 343
313 313 312 313 313 314 315 315 313 311 312 313 316 316 316 319 321 321 320 319 321 321 321 322 323 323 325 325 325 328 333 339 343 344 346 348 349 349 349 346 347 346 347 346
313 312 312 312 313 313 314 316 314 312 312 313 316 316 318 317 319 320 321 320 321 324 325 327 329 329 330 326 326 331 338 342 345 346 347 349 349 348 348 349 346 345 344 344
311 312 311 312 313 314 314 314 318 313 313 312 314 316 317 317 317 320 321 322 322 322 325 330 331 331 334 331 334 341 344 346 347 349 349 349 350 350 349 347 345 342 341 340
311 312 312 311 312 314 314 314 315 315 315 314 315 318 318 319 318 319 321 322 322 326 333 337 339 341 340 339 340 344 346 347 347 348 348 347 347 346 346 343 341 341 339 338
311 313 313 311 312 313 314 313 313 318 316 315 315 318 318 319 323 319 322 321 321 322 335 338 338 340 342 342 345 345 346 346 347 346 345 345 345 344 342 341 340 339 337 336
313 312 314 311 312 314 315 314 312 314 315 318 317 318 318 320 322 321 321 320 320 320 331 339 341 345 344 344 345 345 346 346 345 346 345 343 342 341 340 339 337 336 335 334
311 313 312 315 312 312 313 313 314 313 315 314 313 314 316 316 317 320 319 320 318 319 326 340 341 344 344 344 343 344 344 343 343 341 341 340 340 339 337 336 335 334 334 333
312 316 313 312 312 311 312 311 311 311 312 313 313 313 313 316 317 318 317 317 316 319 323 340 339 343 343 343 343 342 341 341 340 339 338 338 337 335 334 334 334 334 333 332
312 314 313 313 312 312 312 312 312 311 312 312 311 312 312 313 314 315 315 315 316 319 321 336 339 340 341 342 341 340 339 338 337 336 335 334 333 333 334 334 333 333 331 331
312 313 313 313 312 312 312 312 312 312 312 312 312 312 313 314 315 316 316 316 316 317 321 328 339 339 340 339 339 338 337 335 333 332 332 333 333 334 333 333 332 331 331 332
311 313 313 314 313 314 312 313 314 314 315 315 316 315 316 316 315 315 315 316 316 317 321 323 338 339 339 339 337 337 334 332 332 332 332 333 333 333 333 332 331 330 333 332
311 311 315 317 315 313 312 313 315 314 316 315 315 316 315 315 316 318 315 315 316 319 328 324 338 339 338 338 337 334 332 331 331 331 332 332 332 331 330 331 329 332 333 331
313 310 313 314 316 316 313 314 311 313 316 316 315 317 320 320 322 318 316 317 326 328 333 336 339 339 337 338 335 332 330 331 331 332 333 332 332 331 331 329 332 332 333 333
315 316 315 315 317 315 314 311 309 317 316 313 312 315 317 321 322 322 321 323 324 328 332 337 339 339 338 337 335 330 330 331 333 333 332 332 332 330 330 331 330 332 332 332
318 316 318 316 317 321 313 310 312 313 310 309 310 312 315 317 319 320 322 322 324 328 330 338 338 340 337 336 332 330 331 333 333 333 333 332 331 331 331 331 332 332 333 333
316 316 314 313 317 313 312 311 310 310 308 309 309 311 314 317 318 319 321 323 326 328 332 337 339 336 336 334 330 330 332 334 333 333 331 331 331 331 331 332 333 333 332 333
314 313 314 312 312 313 311 311 309 310 309 309 311 313 315 317 319 321 323 325 327 330 337 338 336 336 335 332 328 331 333 333 333 332 331 332 332 333 332 334 333 333 331 332
314 314 315 314 313 311 310 310 310 309 309 310 316 319 320 319 322 324 326 327 329 334 336 338 336 335 333 328 329 331 333 333 331 332 332 332 333 333 334 333 333 332 331 331
314 314 315 315 311 310 311 310 310 307 307 311 313 317 321 322 324 326 330 332 334 335 337 338 335 333 328 328 330 332 332 334 332 332 332 333 332 332 332 331 329 330 329 331
Wind_Speed
12 12 14 16 17 20 22 25 31 30 25 25 30 31 32 32 36 33 36 31 44 44 37 34 27 22 22 25 28 29 29 29 30 27 24 23 23 22 21 21 23 22 23 23
13 16 15 15 18 23 22 25 28 27 28 26 24 27 30 30 28 35 36 39 39 32 31 31 31 29 28 30 28 27 30 28 27 23 27 25 21 20 20 19 21 22 22 22
14 16 19 19 20 20 20 22 24 26 24 26 28 29 31 30 32 36 37 39 40 39 37 34 31 33 32 30 29 29 29 30 29 24 22 22 24 20 19 20 20 21 21 23
15 17 16 15 18 18 22 20 21 22 20 22 25 24 29 26 29 27 34 33 31 33 33 35 37 37 34 34 32 32 32 31 28 27 24 22 19 18 20 20 17 20 23 26
18 19 20 22 22 20 22 19 23 23 22 24 29 21 25 26 26 26 26 36 41 42 41 41 38 36 34 33 31 31 32 31 31 28 25 22 23 18 15 16 24 23 23 19
17 16 21 15 17 25 21 21 25 23 20 21 28 26 25 24 25 23 18 25 26 30 31 32 31 30 28 26 27 27 27 30 31 32 31 28 24 20 17 22 21 22 19 19
17 15 4 5 14 17 24 21 15 17 17 20 23 27 22 23 27 28 16 20 31 18 21 26 27 24 24 22 23 21 21 24 26 24 25 25 23 21 23 25 19 22 19 20
9 16 11 3 11 18 16 21 14 17 16 19 15 23 25 25 26 12 11 26 15 16 19 20 20 19 18 19 19 18 17 16 18 20 20 21 23 22 20 19 19 17 18 18
13 11 23 18 9 16 19 15 20 19 24 16 15 25 27 30 23 21 18 18 16 8 12 16 18 19 18 16 18 18 16 17 18 20 21 22 22 22 19 22 19 18 16 19
15 20 17 13 10 13 15 12 9 12 21 22 20 18 18 30 29 21 17 4 3 9 14 10 14 11 11 14 16 16 17 18 20 21 21 21 22 23 24 22 19 20 20 16
18 15 19 20 14 15 11 15 7 9 14 13 15 12 15 16 30 22 8 5 4 7 6 8 6 6 10 13 15 18 19 21 22 22 23 26 26 24 22 21 19 18 17 16
19 7 15 21 23 12 17 15 11 5 9 18 15 17 21 31 28 27 11 2 8 11 6 2 4 6 12 17 19 20 22 23 23 24 26 25 24 22 22 20 17 16 15 13
8 6 10 14 7 11 10 19 10 7 11 21 11 10 20 8 16 13 7 6 16 15 10 3 4 9 16 19 21 23 24 24 23 23 24 23 23 21 20 18 16 14 14 13
12 15 16 16 22 7 9 16 14 14 12 18 16 20 3 26 23 6 6 8 14 17 11 6 4 1 11 21 23 25 25 24 23 23 23 23 21 19 17 16 15 14 14 13
4 8 19 21 22 19 22 19 15 18 20 21 22 20 14 12 20 27 18 12 17 16 11 8 6 3 16 20 23 24 24 23 23 23 22 20 18 17 16 16 15 15 14 13
4 7 15 20 21 21 22 21 18 19 21 28 24 23 18 17 24 22 23 20 17 15 10 5 12 10 10 22 24 24 24 24 22 21 19 18 18 17 16 17 17 15 15 13
6 6 11 18 19 17 17 19 18 18 21 24 24 21 19 18 15 15 18 17 16 14 12 4 15 17 16 24 24 25 24 22 21 20 19 18 17 16 18 17 16 15 14 12
3 9 8 10 13 11 11 10 14 15 17 14 20 18 19 21 20 24 22 19 15 14 13 8 17 23 26 18 24 24 22 21 20 19 18 17 16 15 16 15 16 15 13 11
8 1 4 4 7 15 22 13 8 9 20 19 21 25 21 30 28 20 16 18 14 16 12 9 21 25 26 25 25 23 22 21 20 18 17 15 15 15 17 17 18 13 12 11
7 7 4 4 5 5 2 8 8 8 17 9 10 11 13 15 12 6 12 9 5 12 12 9 23 27 31 26 24 23 22 20 19 18 17 14 15 16 17 17 14 13 11 10
7 3 7 11 8 8 9 10 11 5 5 18 18 16 19 12 12 26 9 8 12 14 14 7 25 26 29 27 24 22 21 20 20 17 14 13 14 13 16 16 15 13 12 10
3 3 3 4 5 1 16 7 3 11 26 22 22 22 21 21 20 20 16 14 16 17 14 18 26 29 27 26 24 23 21 20 19 17 16 14 15 16 15 14 12 11 12 11
4 4 2 3 5 20 22 17 23 23 24 28 25 25 23 23 19 20 19 15 14 15 14 25 25 28 27 25 24 24 22 20 20 16 16 15 15 14 14 13 13 13 12 11
10 5 4 2 5 14 22 17 23 13 22 31 35 30 25 23 20 22 15 15 15 14 14 25 26 28 26 24 24 23 22 21 19 19 17 17 16 15 12 11 11 10 12 11
13 10 9 11 14 17 9 15 22 21 27 32 17 15 16 20 21 13 13 14 15 10 22 23 29 27 26 24 24 24 23 21 22 19 18 17 15 12 9 9 7 6 10 12
11 10 4 3 11 13 13 23 19 25 31 27 15 14 9 10 11 10 11 12 7 9 24 19 28 26 26 25 26 24 22 21 20 20 18 18 14 11 11 8 8 8 7 11
Wind_Direction
287 287 260 276 281 278 280 274 276 277 274 244 251 257 247 241 237 249 254 250 234 245 248 248 250 248 248 250 250 245 253 256 254 252 255 251 249 242 236 231 224 216 216 213
277 254 263 261 269 278 279 278 272 275 270 278 272 266 264 260 246 247 246 246 251 247 244 247 250 250 250 252 249 249 256 260 257 250 252 241 247 244 236 228 220 211 210 210
295 298 306 289 274 270 271 266 273 280 286 273 266 256 263 264 256 255 252 250 252 252 252 251 252 255 253 253 251 250 251 258 252 249 242 236 232 233 227 216 211 209 207 205
290 290 270 274 269 269 271 269 273 276 269 259 254 261 249 246 249 251 250 247 249 253 256 254 253 255 253 253 254 252 249 252 245 237 226 227 227 222 219 215 208 213 199 204
291 292 285 278 276 279 275 277 274 267 263 267 254 259 255 245 245 241 241 243 245 245 246 250 252 254 256 254 251 247 243 239 237 235 236 224 225 222 217 197 204 204 201 200
277 329 286 308 328 297 288 282 271 262 258 253 252 248 252 246 248 259 257 257 255 250 248 248 253 253 250 249 245 238 234 232 227 239 238 220 222 198 197 192 206 187 180 178
314 306 247 248 322 294 256 258 261 253 244 252 250 251 246 256 243 249 263 262 243 256 258 250 243 242 246 244 230 224 225 224 225 216 214 209 203 189 185 198 177 175 166 171
334 308 323 314 289 301 283 250 244 261 260 257 317 258 246 248 254 251 261 280 267 256 252 250 245 243 247 239 218 217 213 208 201 197 193 186 184 183 185 167 179 166 170 170
305 306 318 301 280 296 276 251 253 268 281 270 273 272 277 240 249 250 252 242 220 260 282 266 255 246 242 230 213 208 204 194 188 180 176 174 173 172 173 171 166 159 160 173
294 295 303 294 289 248 251 281 258 239 260 263 267 263 258 204 231 217 229 167 262 266 263 265 251 235 226 212 193 188 181 175 169 164 165 160 160 161 160 158 159 158 165 163
301 297 290 292 264 279 249 246 189 262 231 271 269 277 350 236 203 217 200 108 313 303 345 269 271 225 208 190 186 172 167 163 161 158 156 158 160 158 150 150 149 153 153 163
305 289 286 279 283 219 262 266 313 233 286 264 275 284 306 298 185 199 109 84 333 331 51 261 213 202 179 172 165 161 160 159 156 155 152 150 147 145 145 146 149 154 158 165
357 284 305 292 247 32 354 311 280 282 269 264 270 276 314 324 104 115 120 17 337 339 28 47 156 171 166 159 157 157 157 154 153 148 145 143 144 146 144 147 153 159 162 163
294 261 257 269 288 244 237 233 254 275 264 276 262 258 290 308 309 185 60 30 329 321 3 93 163 132 138 154 153 153 151 149 148 148 147 145 145 146 148 152 154 158 159 157
210 266 273 272 277 278 278 283 271 266 269 267 283 284 282 240 283 301 327 316 319 315 344 110 169 101 144 154 151 148 146 147 148 147 147 145 146 148 151 152 156 156 156 165
242 275 289 288 280 267 264 262 257 259 268 273 274 278 277 263 266 278 282 292 296 306 323 93 162 165 138 148 154 148 148 148 149 148 147 145 146 149 153 158 157 154 166 156
261 280 288 280 276 286 270 271 266 261 262 260 266 272 274 277 279 283 290 282 280 284 294 330 174 169 157 157 149 151 149 150 148 146 145 148 151 158 159 158 158 162 158 161
229 238 242 266 299 265 281 355 349 325 310 289 286 298 308 301 285 272 271 274 268 277 279 308 183 168 166 166 157 152 153 151 148 148 149 151 157 163 159 161 162 163 163 166
197 228 262 256 241 277 289 321 331 304 280 291 295 295 283 275 278 271 262 267 268 262 267 258 189 168 166 167 159 155 155 153 153 154 155 158 160 159 159 159 168 160 164 153
167 207 251 281 262 274 6 72 11 299 273 33 351 328 316 301 274 255 249 232 265 304 325 293 176 163 164 167 158 159 159 158 160 153 146 159 162 159 162 166 164 166 165 150
306 228 232 250 252 265 49 355 327 237 339 340 325 297 290 286 295 318 323 303 292 300 295 212 167 162 164 161 160 162 160 165 147 143 154 156 160 165 164 168 173 165 166 160
269 290 305 292 267 345 341 348 233 315 309 308 302 290 293 288 290 300 293 281 284 298 303 181 166 169 161 160 161 160 164 151 146 157 157 152 155 161 163 169 166 167 170 160
302 205 260 202 287 300 309 297 298 289 277 289 285 282 275 274 279 276 281 281 292 270 291 178 172 155 159 162 164 161 159 148 150 161 148 153 157 159 167 167 171 175 174 177
310 328 241 295 269 315 313 309 304 307 307 302 287 274 260 257 264 269 274 278 280 284 185 168 159 161 159 163 165 164 157 150 156 150 150 150 151 152 160 176 177 187 183 181
289 296 288 272 289 319 282 294 320 323 320 320 310 286 245 239 255 254 270 264 272 241 179 170 165 158 160 163 164 164 160 153 157 149 153 153 149 150 148 158 154 175 186 181
268 351 315 296 334 294 325 343 343 335 322 329 327 315 283 264 266 271 285 260 229 214 175 180 156 159 161 161 163 163 162 157 155 152 162 161 156 154 146 135 140 146 156 170